Time,TemperatureF,DewpointF,PressureIn,WindDirection,WindDirectionDegrees,WindSpeedMPH,WindSpeedGustMPH,Humidity,HourlyPrecipIn,Conditions,Clouds,dailyrainin,SoftwareType,DateUTC
2013-10-08 00:13:00,48.0,41.0,30.11,SSE,149,0.0,0.0,77,0.00,,,0.00,weatherlink.com 1.10,2013-10-08 05:13:00,
2013-10-08 00:28:00,47.3,40.0,30.11,SSE,149,0.0,0.0,77,0.00,,,0.00,weatherlink.com 1.10,2013-10-08 05:28:00,
2013-10-08 00:43:00,46.6,41.0,30.11,SSE,149,0.0,0.0,80,0.00,,,0.00,weatherlink.com 1.10,2013-10-08 05:43:00,
2013-10-08 00:58:00,46.3,41.0,30.10,SSE,149,0.0,0.0,81,0.00,,,0.00,weatherlink.com 1.10,2013-10-08 05:58:00,
2013-10-08 01:13:00,46.1,41.0,30.10,SSE,149,0.0,0.0,81,0.00,,,0.00,weatherlink.com 1.10,2013-10-08 06:13:00,
2013-10-08 01:28:00,46.1,41.0,30.11,SSE,149,0.0,0.0,82,0.00,,,0.00,weatherlink.com 1.10,2013-10-08 06:28:00,
2013-10-08 01:43:00,46.6,41.0,30.10,SSE,149,0.0,0.0,82,0.00,,,0.00,weatherlink.com 1.10,2013-10-08 06:43:00,
2013-10-08 01:58:00,46.4,41.0,30.11,SSE,149,0.0,0.0,82,0.00,,,0.00,weatherlink.com 1.10,2013-10-08 06:58:00,
2013-10-08 02:13:00,45.7,41.0,30.11,SSE,149,0.0,0.0,82,0.00,,,0.00,weatherlink.com 1.10,2013-10-08 07:13:00,
2013-10-08 02:28:00,45.3,41.0,30.11,SSE,149,0.0,0.0,85,0.00,,,0.00,weatherlink.com 1.10,2013-10-08 07:28:00,
2013-10-08 02:43:00,44.9,41.0,30.11,SSE,150,0.0,0.0,86,0.00,,,0.00,weatherlink.com 1.10,2013-10-08 07:43:00,
2013-10-08 02:58:00,45.0,41.0,30.11,SSE,149,0.0,0.0,86,0.00,,,0.00,weatherlink.com 1.10,2013-10-08 07:58:00,
2013-10-08 03:13:00,44.3,40.0,30.11,SSE,149,0.0,0.0,86,0.00,,,0.00,weatherlink.com 1.10,2013-10-08 08:13:00,
2013-10-08 03:28:00,43.9,40.0,30.11,SSE,149,0.0,0.0,87,0.00,,,0.00,weatherlink.com 1.10,2013-10-08 08:28:00,
2013-10-08 03:43:00,43.7,40.0,30.10,SSE,150,0.0,0.0,87,0.00,,,0.00,weatherlink.com 1.10,2013-10-08 08:43:00,
2013-10-08 03:58:00,43.3,40.0,30.10,SSE,149,0.0,0.0,88,0.00,,,0.00,weatherlink.com 1.10,2013-10-08 08:58:00,
2013-10-08 04:13:00,43.0,40.0,30.10,SSE,149,0.0,0.0,89,0.00,,,0.00,weatherlink.com 1.10,2013-10-08 09:13:00,
2013-10-08 04:28:00,42.7,40.0,30.10,SSE,149,0.0,0.0,89,0.00,,,0.00,weatherlink.com 1.10,2013-10-08 09:28:00,
2013-10-08 04:43:00,-999.0,-99.9,30.10,North,-999,-999.0,-999.0,-999,0.00,,,0.00,weatherlink.com 1.10,2013-10-08 09:43:00,
2013-10-08 04:58:00,-999.0,-99.9,30.10,North,-999,-999.0,-999.0,-999,0.00,,,0.00,weatherlink.com 1.10,2013-10-08 09:58:00,
2013-10-08 05:13:00,-999.0,-99.9,30.10,North,-999,-999.0,-999.0,-999,0.00,,,0.00,weatherlink.com 1.10,2013-10-08 10:13:00,
2013-10-08 05:28:00,-999.0,-99.9,30.10,North,-999,-999.0,-999.0,-999,0.00,,,0.00,weatherlink.com 1.10,2013-10-08 10:28:00,
2013-10-08 05:43:00,-999.0,-99.9,30.10,North,-999,-999.0,-999.0,-999,0.00,,,0.00,weatherlink.com 1.10,2013-10-08 10:43:00,
2013-10-08 05:58:00,-999.0,-99.9,30.10,North,-999,-999.0,-999.0,-999,0.00,,,0.00,weatherlink.com 1.10,2013-10-08 10:58:00,
2013-10-08 06:13:00,-999.0,-99.9,30.10,North,-999,-999.0,-999.0,-999,0.00,,,0.00,weatherlink.com 1.10,2013-10-08 11:13:00,
2013-10-08 06:28:00,-999.0,-99.9,30.10,North,-999,-999.0,-999.0,-999,0.00,,,0.00,weatherlink.com 1.10,2013-10-08 11:28:00,
2013-10-08 06:43:00,-999.0,-99.9,30.10,North,-999,-999.0,-999.0,-999,0.00,,,0.00,weatherlink.com 1.10,2013-10-08 11:43:00,
2013-10-08 06:58:00,-999.0,-99.9,30.10,North,-999,-999.0,-999.0,-999,0.00,,,0.00,weatherlink.com 1.10,2013-10-08 11:58:00,
2013-10-08 07:13:00,-999.0,-99.9,30.10,North,-999,-999.0,-999.0,-999,0.00,,,0.00,weatherlink.com 1.10,2013-10-08 12:13:00,
2013-10-08 07:28:00,-999.0,-99.9,30.10,North,-999,-999.0,-999.0,-999,0.00,,,0.00,weatherlink.com 1.10,2013-10-08 12:28:00,
2013-10-08 07:44:00,-999.0,-99.9,30.11,North,-999,-999.0,-999.0,-999,0.00,,,0.00,weatherlink.com 1.10,2013-10-08 12:44:00,
2013-10-08 07:59:00,-999.0,-99.9,30.11,North,-999,-999.0,-999.0,-999,0.00,,,0.00,weatherlink.com 1.10,2013-10-08 12:59:00,
2013-10-08 08:14:00,44.0,42.0,30.11,SE,143,0.0,1.0,94,0.00,,,0.00,weatherlink.com 1.10,2013-10-08 13:14:00,
2013-10-08 08:29:00,47.9,46.0,30.12,SE,130,0.0,2.0,91,0.00,,,0.00,weatherlink.com 1.10,2013-10-08 13:29:00,
2013-10-08 08:44:00,52.6,47.0,30.12,WNW,293,0.0,2.0,80,0.00,,,0.00,weatherlink.com 1.10,2013-10-08 13:44:00,
2013-10-08 08:59:00,55.4,48.0,30.12,WNW,293,0.0,2.0,75,0.00,,,0.00,weatherlink.com 1.10,2013-10-08 13:59:00,
2013-10-08 09:14:00,57.4,48.0,30.12,NE,36,0.0,4.0,71,0.00,,,0.00,weatherlink.com 1.10,2013-10-08 14:14:00,
2013-10-08 09:29:00,59.0,48.0,30.13,ESE,120,1.0,7.0,68,0.00,,,0.00,weatherlink.com 1.10,2013-10-08 14:29:00,
2013-10-08 09:44:00,60.6,50.0,30.13,SSE,165,3.0,6.0,67,0.00,,,0.00,weatherlink.com 1.10,2013-10-08 14:44:00,
2013-10-08 09:59:00,63.2,51.0,30.13,NE,46,0.0,6.0,64,0.00,,,0.00,weatherlink.com 1.10,2013-10-08 14:59:00,
2013-10-08 10:14:00,65.6,51.0,30.13,SE,127,6.0,8.0,60,0.00,,,0.00,weatherlink.com 1.10,2013-10-08 15:14:00,
2013-10-08 10:29:00,66.8,50.0,30.13,SE,124,6.0,7.0,56,0.00,,,0.00,weatherlink.com 1.10,2013-10-08 15:29:00,
2013-10-08 10:44:00,68.5,50.0,30.13,SSE,156,7.0,9.0,51,0.00,,,0.00,weatherlink.com 1.10,2013-10-08 15:44:00,
2013-10-08 11:00:00,69.1,50.0,30.12,East,96,6.0,8.0,50,0.00,,,0.00,weatherlink.com 1.10,2013-10-08 16:00:00,
2013-10-08 11:14:00,70.3,49.0,30.12,SSW,211,3.0,9.0,47,0.00,,,0.00,weatherlink.com 1.10,2013-10-08 16:14:00,
2013-10-08 11:29:00,71.4,48.0,30.11,South,179,4.0,10.0,44,0.00,,,0.00,weatherlink.com 1.10,2013-10-08 16:29:00,
2013-10-08 11:44:00,72.2,48.0,30.11,SSE,149,3.0,10.0,42,0.00,,,0.00,weatherlink.com 1.10,2013-10-08 16:44:00,
2013-10-08 11:59:00,73.0,47.0,30.10,SE,135,4.0,13.0,40,0.00,,,0.00,weatherlink.com 1.10,2013-10-08 16:59:00,
2013-10-08 12:14:00,73.7,46.0,30.10,SSE,167,3.0,11.0,38,0.00,,,0.00,weatherlink.com 1.10,2013-10-08 17:14:00,
2013-10-08 12:29:00,74.7,46.0,30.09,SW,224,7.0,13.0,36,0.00,,,0.00,weatherlink.com 1.10,2013-10-08 17:29:00,
2013-10-08 12:44:00,75.3,47.0,30.09,SE,144,5.0,10.0,37,0.00,,,0.00,weatherlink.com 1.10,2013-10-08 17:44:00,
2013-10-08 12:59:00,76.4,46.0,30.08,ESE,105,4.0,9.0,34,0.00,,,0.00,weatherlink.com 1.10,2013-10-08 17:59:00,
2013-10-08 13:14:00,77.1,46.0,30.07,SW,221,6.0,7.0,33,0.00,,,0.00,weatherlink.com 1.10,2013-10-08 18:14:00,
2013-10-08 13:29:00,77.4,47.0,30.06,SE,146,6.0,8.0,34,0.00,,,0.00,weatherlink.com 1.10,2013-10-08 18:29:00,
2013-10-08 13:44:00,77.5,45.0,30.05,ESE,111,3.0,10.0,32,0.00,,,0.00,weatherlink.com 1.10,2013-10-08 18:44:00,
2013-10-08 13:59:00,78.4,46.0,30.04,East,79,6.0,8.0,32,0.00,,,0.00,weatherlink.com 1.10,2013-10-08 18:59:00,
2013-10-08 14:14:00,78.4,45.0,30.03,ESE,105,5.0,11.0,31,0.00,,,0.00,weatherlink.com 1.10,2013-10-08 19:14:00,
2013-10-08 14:29:00,79.2,44.0,30.03,WSW,243,9.0,11.0,29,0.00,,,0.00,weatherlink.com 1.10,2013-10-08 19:29:00,
2013-10-08 14:44:00,79.4,45.0,30.02,South,173,4.0,10.0,30,0.00,,,0.00,weatherlink.com 1.10,2013-10-08 19:44:00,
2013-10-08 14:59:00,79.7,44.0,30.02,SE,141,4.0,8.0,28,0.00,,,0.00,weatherlink.com 1.10,2013-10-08 19:59:00,
2013-10-08 15:14:00,79.8,45.0,30.01,SE,132,3.0,9.0,29,0.00,,,0.00,weatherlink.com 1.10,2013-10-08 20:14:00,
2013-10-08 15:29:00,80.2,44.0,30.01,SSE,159,6.0,10.0,28,0.00,,,0.00,weatherlink.com 1.10,2013-10-08 20:29:00,
2013-10-08 15:44:00,79.9,43.0,30.00,SSE,160,5.0,10.0,27,0.00,,,0.00,weatherlink.com 1.10,2013-10-08 20:44:00,
2013-10-08 15:59:00,80.2,43.0,30.00,SE,127,2.0,8.0,27,0.00,,,0.00,weatherlink.com 1.10,2013-10-08 20:59:00,
2013-10-08 16:14:00,80.5,44.0,30.00,South,186,0.0,10.0,28,0.00,,,0.00,weatherlink.com 1.10,2013-10-08 21:14:00,
2013-10-08 16:29:00,80.5,44.0,30.00,ESE,122,3.0,10.0,28,0.00,,,0.00,weatherlink.com 1.10,2013-10-08 21:29:00,
2013-10-08 16:44:00,80.4,43.0,30.00,SE,131,3.0,9.0,27,0.00,,,0.00,weatherlink.com 1.10,2013-10-08 21:44:00,
2013-10-08 17:00:00,79.9,43.0,30.00,SSE,152,0.0,10.0,27,0.00,,,0.00,weatherlink.com 1.10,2013-10-08 22:00:00,
2013-10-08 17:15:00,79.9,44.0,29.99,South,173,3.0,8.0,28,0.00,,,0.00,weatherlink.com 1.10,2013-10-08 22:15:00,
2013-10-08 17:30:00,79.7,45.0,29.99,SSE,150,3.0,9.0,29,0.00,,,0.00,weatherlink.com 1.10,2013-10-08 22:30:00,
2013-10-08 17:46:00,78.6,46.0,29.99,SSE,152,2.0,7.0,32,0.00,,,0.00,weatherlink.com 1.10,2013-10-08 22:46:00,
2013-10-08 18:00:00,77.4,47.0,29.99,SE,138,1.0,9.0,34,0.00,,,0.00,weatherlink.com 1.10,2013-10-08 23:00:00,
2013-10-08 18:15:00,75.5,46.0,29.99,South,176,0.0,7.0,35,0.00,,,0.00,weatherlink.com 1.10,2013-10-08 23:15:00,
2013-10-08 18:30:00,74.4,46.0,29.99,ESE,103,2.0,6.0,37,0.00,,,0.00,weatherlink.com 1.10,2013-10-08 23:30:00,
2013-10-08 18:45:00,73.3,47.0,29.99,ESE,111,1.0,5.0,39,0.00,,,0.00,weatherlink.com 1.10,2013-10-08 23:45:00,
2013-10-08 19:00:00,71.8,47.0,29.99,SE,143,0.0,2.0,41,0.00,,,0.00,weatherlink.com 1.10,2013-10-09 00:00:00,
2013-10-08 19:15:00,70.3,47.0,30.00,SE,139,0.0,3.0,44,0.00,,,0.00,weatherlink.com 1.10,2013-10-09 00:15:00,
2013-10-08 19:30:00,68.9,47.0,30.00,SSE,159,0.0,2.0,46,0.00,,,0.00,weatherlink.com 1.10,2013-10-09 00:30:00,
2013-10-08 19:45:00,67.3,47.0,30.00,SE,134,0.0,1.0,49,0.00,,,0.00,weatherlink.com 1.10,2013-10-09 00:45:00,
2013-10-08 20:00:00,65.4,47.0,30.00,SSE,150,0.0,1.0,52,0.00,,,0.00,weatherlink.com 1.10,2013-10-09 01:00:00,
2013-10-08 20:15:00,64.2,48.0,30.00,SE,146,0.0,1.0,55,0.00,,,0.00,weatherlink.com 1.10,2013-10-09 01:15:00,
2013-10-08 20:31:00,62.7,47.0,30.00,SE,143,0.0,1.0,58,0.00,,,0.00,weatherlink.com 1.10,2013-10-09 01:31:00,
2013-10-08 20:45:00,62.5,48.0,30.00,SSE,158,0.0,1.0,59,0.00,,,0.00,weatherlink.com 1.10,2013-10-09 01:45:00,
2013-10-08 21:00:00,62.0,48.0,30.00,SSE,156,0.0,1.0,61,0.00,,,0.00,weatherlink.com 1.10,2013-10-09 02:00:00,
2013-10-08 21:15:00,61.2,48.0,30.00,SSE,165,0.0,1.0,63,0.00,,,0.00,weatherlink.com 1.10,2013-10-09 02:15:00,
2013-10-08 21:30:00,61.0,49.0,30.00,SE,146,0.0,2.0,65,0.00,,,0.00,weatherlink.com 1.10,2013-10-09 02:30:00,
2013-10-08 21:45:00,61.1,50.0,30.00,SSE,159,0.0,2.0,66,0.00,,,0.00,weatherlink.com 1.10,2013-10-09 02:45:00,
2013-10-08 22:00:00,61.4,51.0,30.00,SE,143,0.0,3.0,68,0.00,,,0.00,weatherlink.com 1.10,2013-10-09 03:00:00,
2013-10-08 22:15:00,62.0,52.0,30.00,ESE,120,0.0,4.0,69,0.00,,,0.00,weatherlink.com 1.10,2013-10-09 03:15:00,
2013-10-08 22:31:00,62.5,52.0,30.01,ESE,110,0.0,6.0,69,0.00,,,0.00,weatherlink.com 1.10,2013-10-09 03:31:00,
2013-10-08 22:45:00,62.4,52.0,30.00,ESE,123,2.0,3.0,69,0.00,,,0.00,weatherlink.com 1.10,2013-10-09 03:45:00,
2013-10-08 23:00:00,62.1,52.0,30.01,SW,219,2.0,4.0,70,0.00,,,0.00,weatherlink.com 1.10,2013-10-09 04:00:00,
2013-10-08 23:15:00,61.6,52.0,30.01,SE,140,0.0,4.0,71,0.00,,,0.00,weatherlink.com 1.10,2013-10-09 04:15:00,
2013-10-08 23:30:00,60.9,52.0,30.01,SSE,153,0.0,3.0,72,0.00,,,0.00,weatherlink.com 1.10,2013-10-09 04:30:00,
2013-10-08 23:45:00,59.9,52.0,30.01,SE,136,0.0,3.0,74,0.00,,,0.00,weatherlink.com 1.10,2013-10-09 04:45:00,